NW Arkansas Airport, AR

7:02 AM CDT on May 28, 2017 (GMT -0500)
Northwest Arkansas Regional

Weather History for KXNA - December, 2013

Change the Weather History Date:

Sunday, December 15, 2013

  Actual Average (KVBT) Record (KVBT)
Temperature  
Mean Temperature 32 °F -  
Max Temperature 48 °F 47 °F 68 °F (1948)
Min Temperature 17 °F 25 °F -4 °F (1985)
Degree Days  
Heating Degree Days 32    
Moisture  
Dew Point 23 °F    
Average Humidity 81    
Maximum Humidity 96    
Minimum Humidity 50    
Precipitation  
Precipitation 0.00 in - - ()
Sea Level Pressure  
Sea Level Pressure 30.22 in    
Wind  
Wind Speed 6 mph (SW)    
Max Wind Speed 12 mph    
Max Gust Speed -    
Visibility 6 miles    
Events Fog    
Averages and records for this station are not official NWS values.
T = Trace of Precipitation, MM = Missing Value Source: NWS Daily Summary

Daily Weather History Graph

Daily Weather History Graph

Search for Another Location

Airport or City:

Trip Planner

Search our weather history database for the weather conditions in past years. The results will help you decide how hot, cold, wet, or windy it might be!

Date:

Astronomy

Dec. 15, 2013 Rise Set
Actual Time 7:21 AM CST 5:03 PM CST
Civil Twilight 6:52 AM CST 5:32 PM CST
Nautical Twilight 6:20 AM CST 6:04 PM CST
Astronomical Twilight 5:49 AM CST 6:35 PM CST
Moon 4:06 PM CST (12/15) 5:40 AM CST (12/15)
Length of Visible Light 10h 39m
Length of Day
9h 42m
Waxing Gibbous, 98% of the Moon is Illuminated
Dec 15
Waxing Gibbous
Dec 17
Full
Dec 25
Last Quarter
Jan 1
New
Jan 7
First Quarter

Hourly Weather History & Observations

Time (CST) Temp. Windchill Dew Point Humidity Pressure Visibility Wind Dir Wind Speed Gust Speed Precip Events Conditions
12:53 AM 21.9 °F 15.7 °F 19.9 °F 92% 30.25 in 5.0 mi NW 4.6 mph - N/A   Clear
1:53 AM 19.9 °F 13.4 °F 19.0 °F 96% 30.27 in 5.0 mi WSW 4.6 mph - N/A   Clear
2:53 AM 19.9 °F 14.9 °F 19.0 °F 96% 30.26 in 5.0 mi WNW 3.5 mph - N/A   Clear
3:53 AM 19.9 °F 14.9 °F 18.0 °F 92% 30.27 in 4.0 mi WSW 3.5 mph - N/A   Clear
4:53 AM 18.0 °F 12.7 °F 16.0 °F 92% 30.26 in 4.0 mi South 3.5 mph - N/A   Clear
5:00 AM 17.6 °F 10.7 °F 15.8 °F 93% 30.22 in 4.0 mi SW 4.6 mph - N/A   Scattered Clouds
5:14 AM 19.4 °F 11.5 °F 17.6 °F 93% 30.22 in 2.5 mi SSW 5.8 mph - N/A   Mostly Cloudy
5:20 AM 19.4 °F 10.4 °F 17.6 °F 93% 30.22 in 0.8 mi SW 6.9 mph - N/A   Mist
5:35 AM 19.4 °F 10.4 °F 17.6 °F 93% 30.21 in 0.2 mi SSW 6.9 mph - N/A Fog Light Freezing Fog
5:53 AM 19.0 °F 11.1 °F 18.0 °F 96% 30.25 in 0.5 mi SSW 5.8 mph - N/A Fog Light Freezing Fog
6:04 AM 19.4 °F 12.8 °F 17.6 °F 93% 30.21 in 2.0 mi SW 4.6 mph - N/A   Mostly Cloudy
6:12 AM 19.4 °F 14.3 °F 17.6 °F 93% 30.22 in 2.5 mi SW 3.5 mph - N/A   Scattered Clouds
6:19 AM 19.4 °F 14.3 °F 17.6 °F 93% 30.22 in 3.0 mi SW 3.5 mph - N/A   Partly Cloudy
6:53 AM 19.0 °F 13.9 °F 18.0 °F 96% 30.27 in 3.0 mi SSW 3.5 mph - N/A   Clear
7:32 AM 19.4 °F 14.3 °F 17.6 °F 93% 30.24 in 2.5 mi SW 3.5 mph - N/A   Clear
7:51 AM 21.2 °F 14.9 °F 19.4 °F 93% 30.24 in 3.0 mi SSW 4.6 mph - N/A   Clear
7:53 AM 21.0 °F 14.6 °F 19.0 °F 92% 30.27 in 3.0 mi SSW 4.6 mph - N/A   Clear
8:53 AM 24.1 °F 17.0 °F 21.9 °F 91% 30.28 in 3.0 mi SSW 5.8 mph - N/A   Clear
9:53 AM 27.0 °F 19.5 °F 25.0 °F 92% 30.29 in 5.0 mi SSW 6.9 mph - N/A   Clear
10:53 AM 34.0 °F 28.0 °F 27.0 °F 75% 30.27 in 9.0 mi SW 6.9 mph - N/A   Clear
11:53 AM 39.0 °F 32.3 °F 28.0 °F 65% 30.24 in 10.0 mi SW 10.4 mph - N/A   Clear
12:53 PM 43.0 °F 37.2 °F 30.0 °F 60% 30.21 in 10.0 mi SW 10.4 mph - N/A   Clear
1:53 PM 46.0 °F 40.6 °F 30.9 °F 56% 30.17 in 10.0 mi SW 11.5 mph - N/A   Clear
2:53 PM 48.0 °F - 30.9 °F 52% 30.17 in 10.0 mi SSW 11.5 mph - N/A   Clear
3:53 PM 48.0 °F - 30.0 °F 50% 30.16 in 10.0 mi SW 10.4 mph - N/A   Clear
4:53 PM 44.1 °F 40.1 °F 30.0 °F 58% 30.16 in 10.0 mi SSW 6.9 mph - N/A   Clear
5:53 PM 42.1 °F 37.7 °F 30.0 °F 62% 30.16 in 10.0 mi SSW 6.9 mph - N/A   Clear
6:53 PM 37.9 °F 32.1 °F 30.0 °F 73% 30.15 in 10.0 mi South 8.1 mph - N/A   Clear
7:53 PM 37.0 °F 32.4 °F 30.0 °F 76% 30.16 in 10.0 mi SSW 5.8 mph - N/A   Clear
8:53 PM 36.0 °F 30.3 °F 28.9 °F 76% 30.15 in 10.0 mi SSW 6.9 mph - N/A   Clear
9:53 PM 41.0 °F 35.2 °F 30.0 °F 65% 30.15 in 10.0 mi SSW 9.2 mph - N/A   Clear
10:53 PM 39.9 °F 34.5 °F 30.0 °F 68% 30.15 in 10.0 mi SW 8.1 mph - N/A   Clear
11:53 PM 39.0 °F 31.8 °F 30.0 °F 70% 30.14 in 10.0 mi SSW 11.5 mph - N/A   Clear